Preview of NWS' New Version of Forecast
This preview is not operational and should not be used for support decisions.

Regional Weather Roundup (RWR)

Issued by National Weather Service (NWS)

                            
000
ASUS43 KDTX 161310
RWRMI 
MICHIGAN HOURLY REGIONAL WEATHER ROUNDUP
NATIONAL WEATHER SERVICE DETROIT/PONTIAC MI
900 AM EDT SUN JUN 16 2019

NOTE: "FAIR" INDICATES FEW OR NO CLOUDS BELOW 12,000 FEET WITH NO
SIGNIFICANT WEATHER AND/OR OBSTRUCTION TO VISIBILITY.

MIZ047>049-052>055-059>063-066>070-074>076-081>083-161400-
SOUTHEAST LOWER MICHIGAN
  
CITY           SKY/WX    TMP DP  RH WIND       PRES   REMARKS
ADRIAN         LGT RAIN  59  58  96 E6        29.83R FOG              
ALMA           CLOUDY    58  50  74 NE7       29.90R                  
ANN ARBOR      RAIN      56  56 100 NE5       29.84R FOG              
BAD AXE        PTSUNNY   57  49  74 NE8       29.88F                  
CARO           CLOUDY    57  48  72 NE3       29.88S                  
DETROIT CITY   LGT RAIN  56  52  86 N8        29.85R                  
DETROIT        RAIN      56  52  86 N8        29.84R FOG              
FLINT          LGT RAIN  56  47  71 NE6       29.87S                  
GROSSE ILE     HVY RAIN  59  58  96 NE6       29.83R                  
HILLSDALE      LGT RAIN  59  58  97 E7        29.81S                  
HOWELL         DRIZZLE   55  48  79 NE5       29.85S                  

CITY           SKY/WX    TMP DP  RH WIND       PRES   REMARKS
JACKSON        LGT RAIN  59  58  96 N7        29.83S FOG              
LAMBERTVILLE   LGT RAIN  61  61 100 CALM      29.82S VSB 1            
LANSING        CLOUDY    54  49  83 NE5       29.87R                  
LAPEER         CLOUDY    55  47  74 CALM      29.88R                  
MASON          DRIZZLE   53  51  92 NE5       29.86R                  
MONROE         RAIN      60  60  98 NE5       29.82S VSB 1            
MT. CLEMENS    LGT RAIN  56  56 100 N8        29.84R                  
PONTIAC        LGT RAIN  55  50  83 N3        29.84R                  
PORT HOPE        N/A     52  46  80 NE8       29.90R                  
PORT HURON     CLOUDY    57  50  77 N5        29.86S                  
TRI CITIES     CLOUDY    57  52  83 NE12      29.90S                  
MIDLAND        CLOUDY    56  49  76 NE5       29.90R                  
TROY           RAIN      56  51  84 NE6       29.87R                  
SAGINAW HB     CLOUDY    57  48  72 NE6       29.89R                  
$$
MIZ043>046-050>051-056>058-064>065-071>073-077>080-161400-
SOUTHWEST LOWER MICHIGAN
  
CITY           SKY/WX    TMP DP  RH WIND       PRES   REMARKS
BATTLE CREEK   LGT RAIN  59  58  96 NE8       29.82S                  
BENTON HARBOR  CLOUDY    65  63  93 E6        29.78R                  
BIG RAPIDS     CLOUDY    56  46  69 E6        29.89S                  
COLDWATER      LGT RAIN  62  62 100 E7        29.80S                  
FREMONT        LGT RAIN  58  45  62 E10G17    29.85S                  
HOLLAND        CLOUDY    59  50  72 E13G18    29.84R                  
GRAND RAPIDS   LGT RAIN  57  44  62 E15       29.85R                  
IONIA          CLOUDY    53  45  74 NE10      29.86S                  
KALAMAZOO      LGT RAIN  60  58  92 NE7       29.82R                  
LUDINGTON      CLOUDY    56  49  77 E8        29.87S                  
MARSHALL       LGT RAIN  60  60 100 NE5       29.82S                  
MOUNT PLEASANT CLOUDY    56  47  73 NE6       29.90R                  
MUSKEGON       CLOUDY    60  42  51 E10       29.84R                  
SOUTH HAVEN    CLOUDY    61  60  96 E10       29.80R                  
$$
MIZ016>042-161400-
NORTHERN LOWER MICHIGAN
  
CITY           SKY/WX    TMP DP  RH WIND       PRES   REMARKS
ALPENA         FAIR      57  47  69 NE10      29.95R                  
BEAVER ISLAND  FAIR      51  47  84 E12       29.96R                  
BELLAIRE       FAIR      52  46  80 NE3       29.94R                  
CADILLAC       DRIZZLE   53  47  81 E5        29.90R                  
CHARLEVOIX     FAIR      53  47  77 E10       29.97R                  
FRANKFORT      PTSUNNY   56  43  62 E3        29.91R                  
GAYLORD        FAIR      50  44  80 E6        29.93R                  
GRAYLING       PTSUNNY   52  48  86 SE3       29.92R                  
HARBOR SPRINGS FAIR      52  49  90 E10       29.95R                  
HOUGHTON LAKE  FAIR      54  44  69 E6        29.92R                  
MANISTEE       CLOUDY    53  46  77 NE7       29.89R                  
OSCODA         FAIR      54  49  82 NE8       29.93R                  
PELLSTON       FAIR      53  48  83 E7        29.97R                  
ROGERS CITY    FAIR      51  46  85 E5        29.98R                  
TRAVERSE CITY  CLOUDY    52  45  77 CALM      29.92R                  
$$
MIZ007>008-015-161400-
EASTERN UPPER MICHIGAN
  
CITY           SKY/WX    TMP DP  RH WIND       PRES   REMARKS
KINROSS        FAIR      51  46  83 E7        29.97R                  
MACKINAC ISLAN FAIR      51  50  97 NE7       29.97R FOG              
NEWBERRY       FAIR      51  49  92 E6        29.97R                  
S. S. MARIE    FAIR      54  47  77 NE7       29.96R                  
MUNISING         N/A     47  42  83 CALM      29.96S                  
$$
MIZ004>006-011>014-085-161400-
CENTRAL UPPER MICHIGAN
  
CITY           SKY/WX    TMP DP  RH WIND       PRES   REMARKS
MANISTIQUE     FAIR      56  49  76 E10       29.96R                  
ESCANABA       FAIR      50  44  80 VRB6      29.96R                  
MENOMINEE      CLOUDY    50  45  83 NE5       29.95R                  
SAWYER-GWINN   SUNNY     52  41  66 E8        29.96R                  
$$
MIZ001>003-009>011-084-161400-
WESTERN UPPER MICHIGAN
  
CITY           SKY/WX    TMP DP  RH WIND       PRES   REMARKS
IRON MOUNTAIN  FAIR      52  41  66 NE5       29.94R                  
HOUGHTON       FAIR      51  42  71 E8        29.97R                  
COPPER HARBOR    N/A     53  47  79 VRB5      29.98R                  
IRONWOOD       FAIR      53  41  63 E9        29.96R                  
$$

ABBREVIATIONS USED IN REMARKS
   TC - TEMPERATURE IN CELSIUS
  WCI - WIND CHILL INDEX
   HX - HEAT INDEX
  VSB - VISIBILITY